User: anonymous   Login
Location: Unspecified
(0.0000°N, 0.0000°E)
Time: 21:54:00
(UTC+00:00)
Language:

STARLINK-3349 - Orbit

View from above orbital plane
View from above orbital plane
View from above satellite
View from above satellite

Ground track
Ground track

The orbit is defined by the following mean orbital elements,

1 50813U          26145.31859933 +.00000000 +00000-0 +95129-3 0 00008
2 50813  53.2029 122.6436 0002833  55.7805 304.3470 15.43322631    01
Epoch (UTC): 25 May 2026 07:38:46
Eccentricity: 0.0002833
inclination: 53.2029°
perigee height: 434 km
apogee height: 438 km
right ascension of ascending node: 122.6436°
argument of perigee: 55.7805°
revolutions per day: 15.43322631
mean anomaly at epoch: 304.3470°

The dashed part of the orbit path shows where the satellite is in the earth's shadow,  

DLR